Location: Millers Ferry
(32.0990°N, 87.3680°W)
Time: 22:17:29
(UTC-06:00)

CSL-04 Rocket - Visible Passes

Search period start: 28 January 2015 00:00
Search period end: 07 February 2015 00:00
Orbit: 806 x 861 km, 98.9° (Epoch: 27 January)

Date Brightness Start Highest point End Pass type
(mag) Time Alt. Az. Time Alt. Az. Time Alt. Az.
28 Jan 4.8 04:22:32 10° NNE 04:25:17 32° NNE 04:25:17 32° NNE visible
29 Jan 5.1 04:05:48 10° NNE 04:08:31 30° NNE 04:08:31 30° NNE visible
29 Jan 5.3 05:48:10 10° NNW 05:50:10 14° NW 05:50:10 14° NW visible
30 Jan 5.5 03:49:13 10° NNE 03:51:44 25° NE 03:51:44 25° NE visible
30 Jan 4.9 05:30:24 10° NNW 05:33:24 20° NW 05:33:24 20° NW visible
31 Jan 5.9 03:32:51 10° NE 03:34:58 20° ENE 03:34:58 20° ENE visible
31 Jan 4.6 05:13:02 10° N 05:16:38 28° NW 05:16:38 28° NW visible
01 Feb 6.3 03:16:46 10° NE 03:18:14 15° ENE 03:18:14 15° ENE visible
01 Feb 4.2 04:55:54 10° N 04:59:54 38° NW 04:59:54 38° NW visible
02 Feb 6.6 03:01:20 10° ENE 03:01:29 10° ENE 03:01:29 10° ENE visible
02 Feb 3.9 04:38:54 10° N 04:43:09 51° NNW 04:43:09 51° NNW visible
03 Feb 3.9 04:22:03 10° NNE 04:26:25 59° NNE 04:26:25 59° NNE visible
04 Feb 4.3 04:05:20 10° NNE 04:09:41 51° ENE 04:09:41 51° ENE visible
04 Feb 5.2 05:47:35 10° NNW 05:50:38 15° WNW 05:51:21 14° WNW visible
05 Feb 4.9 03:48:46 10° NNE 03:52:58 38° ENE 03:52:58 38° ENE visible
05 Feb 4.8 05:29:53 10° NNW 05:33:58 21° WNW 05:34:38 21° WNW visible
06 Feb 5.5 03:32:24 10° NE 03:36:15 27° E 03:36:15 27° E visible
06 Feb 4.4 05:12:32 10° N 05:17:17 31° WNW 05:17:55 30° W visible
